Date,TemperatureHighF,TemperatureAvgF,TemperatureLowF,DewpointHighF,DewpointAvgF,DewpointLowF,HumidityHigh,HumidityAvg,HumidityLow,PressureMaxIn,PressureMinIn,WindSpeedMaxMPH,WindSpeedAvgMPH,GustSpeedMaxMPH,PrecipitationSumIn
2012-6-28,90,84,75,69,67,65,79,56,44,30.08,30.02,6,2,11,0.00
2012-6-29,93,81,67,77,70,65,99,73,40,30.07,29.93,5,1,9,0.00
2012-6-30,92,80,68,75,70,64,100,75,41,30.03,29.93,6,1,11,0.00
2012-7-1,95,82,69,78,73,68,100,77,49,30.08,29.98,6,1,10,0.00
2012-7-2,94,83,73,78,74,69,99,76,50,30.10,29.98,11,2,15,0.00
2012-7-3,96,81,71,77,72,67,97,76,50,30.08,29.98,5,1,20,0.00
2012-7-4,96,80,74,77,73,69,97,82,43,30.08,30.01,5,1,12,0.59
2012-7-5,94,81,70,77,73,70,99,80,51,30.07,29.97,6,1,8,0.02
2012-7-6,95,82,72,77,73,70,98,77,44,30.07,29.98,6,1,10,0.00
2012-7-7,95,83,72,78,73,67,99,73,40,30.09,30.02,6,1,11,0.00
2012-7-8,96,84,73,78,73,70,98,72,47,30.10,29.98,5,2,9,0.00
2012-7-9,96,83,74,79,75,72,99,78,50,30.05,29.95,12,2,16,0.00
2012-7-10,93,79,71,79,74,70,99,85,52,30.05,29.96,4,1,11,0.20
2012-7-11,89,76,72,78,74,72,100,93,63,30.05,29.95,6,1,13,0.45
2012-7-12,90,80,71,77,73,71,100,83,56,30.03,29.94,5,1,10,0.14
2012-7-13,90,80,73,79,75,73,100,86,62,30.08,29.97,7,2,16,0.31
2012-7-14,90,81,74,79,75,72,99,81,58,30.11,30.01,11,2,18,0.07
2012-7-15,93,79,72,77,74,72,100,88,54,30.11,30.03,5,1,15,0.53
2012-7-16,87,77,72,79,74,70,100,92,68,30.08,29.95,7,1,14,2.80
2012-7-17,86,76,71,78,74,71,100,92,72,30.04,29.96,7,1,11,0.71
2012-7-18,88,77,72,79,75,72,100,94,73,30.12,29.99,7,1,12,0.61
2012-7-19,95,82,72,81,76,72,100,83,58,30.16,30.09,6,1,12,0.00
2012-7-20,96,84,73,80,75,72,100,77,48,30.12,30.03,8,1,8,0.00
2012-7-21,94,84,75,78,75,71,98,77,51,30.12,30.02,9,1,10,0.00
2012-7-22,93,78,74,80,75,70,99,90,64,30.16,30.05,12,2,17,0.33
2012-7-23,88,76,70,80,74,70,100,96,79,30.16,30.09,6,1,11,3.74
2012-7-24,91,79,71,82,76,71,100,90,70,30.14,30.03,7,1,12,0.08
2012-7-25,94,84,76,80,77,75,99,82,58,30.04,29.98,7,1,12,0.00
2012-7-26,94,84,75,80,76,74,99,79,55,30.03,29.97,7,2,11,0.00
2012-7-27,97,84,74,79,75,71,100,78,44,30.09,29.99,6,1,14,0.00
2012-7-28,96,83,74,79,75,72,100,79,49,30.10,30.02,5,1,10,0.00
2012-7-29,95,84,74,79,75,71,100,77,48,30.07,29.98,8,1,15,0.00
2012-7-30,93,81,75,79,75,72,99,82,56,30.04,29.99,11,1,18,0.03
2012-7-31,96,81,73,79,74,71,98,80,47,30.05,29.97,9,2,12,0.00
2012-8-1,91,80,74,79,76,72,98,86,67,30.01,29.93,8,1,10,0.19
2012-8-2,94,84,74,80,75,69,100,77,47,30.00,29.91,7,1,11,0.01
2012-8-3,94,79,72,78,73,70,99,85,53,30.05,29.93,11,1,14,0.23
2012-8-4,92,80,71,78,74,71,100,84,55,30.05,29.96,8,2,11,0.01
2012-8-5,96,81,74,79,75,72,98,83,49,30.10,30.00,12,2,13,0.21
2012-8-6,93,80,73,80,76,73,100,89,57,30.10,29.96,8,2,16,0.09
2012-8-7,94,80,72,80,75,71,100,86,57,30.04,29.96,6,1,8,0.00
2012-8-8,97,84,75,79,75,72,96,76,49,30.05,29.96,6,2,9,0.00
2012-8-9,97,83,71,78,74,70,98,76,48,30.03,29.91,6,1,9,0.15
2012-8-10,94,81,74,79,75,71,99,84,53,30.00,29.91,11,1,13,0.07
2012-8-11,90,79,73,78,75,72,99,88,64,30.04,29.93,8,1,10,0.29
2012-8-12,93,78,73,81,75,73,100,90,61,30.05,29.97,8,1,15,0.01
2012-8-13,92,82,73,79,76,73,100,84,63,30.07,29.99,7,1,11,0.00
2012-8-14,92,79,72,79,75,72,100,89,59,30.05,29.97,12,1,22,0.88
2012-8-15,94,82,71,80,75,71,100,83,58,30.05,29.96,4,1,6,0.01
2012-8-16,94,82,74,80,76,73,99,82,62,30.07,29.99,7,1,11,0.00
2012-8-17,93,82,75,80,76,74,99,84,63,30.05,29.92,5,1,10,0.00
2012-8-18,85,78,73,79,76,73,100,93,75,30.02,29.90,6,1,13,0.32
2012-8-19,94,82,74,80,76,72,100,85,61,30.00,29.90,9,2,15,0.01
2012-8-20,96,84,74,80,76,73,98,78,51,30.04,29.88,11,2,15,0.34
2012-8-21,93,78,71,80,74,70,99,89,57,30.11,29.96,11,2,18,0.72
2012-8-22,91,75,71,77,73,70,100,93,61,30.10,29.99,16,2,19,0.53
2012-8-23,92,80,70,76,73,70,100,80,53,30.10,30.02,5,1,10,0.00
2012-8-24,93,81,71,78,74,71,99,80,50,30.06,29.95,7,2,11,0.00
2012-8-25,91,79,71,77,73,68,99,81,49,30.03,29.93,8,2,15,0.00
2012-8-26,82,78,74,79,76,72,98,93,85,30.00,29.83,14,4,19,0.47
2012-8-27,84,78,74,80,77,74,100,95,84,29.89,29.75,14,6,22,2.55
2012-8-28,92,82,76,82,78,74,95,86,64,29.99,29.87,11,4,17,0.01
2012-8-29,93,80,74,79,76,73,99,87,61,30.00,29.90,10,2,13,0.54
2012-8-30,93,82,73,80,76,73,100,84,57,30.12,29.95,6,1,9,0.00
2012-8-31,93,83,74,79,76,73,100,81,56,30.17,30.09,5,1,10,0.00
2012-9-1,92,83,74,80,75,71,100,79,51,30.15,30.05,6,2,10,0.00
2012-9-2,91,80,69,75,70,68,100,75,50,30.09,29.98,6,1,10,0.00
2012-9-3,91,80,68,76,71,68,100,76,51,30.05,29.96,5,1,7,0.00
2012-9-4,94,81,71,78,72,69,100,77,47,30.02,29.92,6,1,9,0.00
2012-9-5,93,79,71,77,73,70,99,84,57,30.00,29.90,7,2,13,0.34
2012-9-6,91,77,71,78,74,70,100,89,63,30.01,29.93,5,1,16,0.06
2012-9-7,92,78,70,78,74,70,100,89,56,30.00,29.89,14,1,18,1.02
2012-9-8,94,81,72,80,74,71,100,81,53,29.95,29.86,8,2,16,0.01
2012-9-9,81,77,74,79,76,73,100,96,86,29.97,29.86,6,1,11,1.53
2012-9-10,89,78,72,80,76,71,100,94,67,30.03,29.92,6,1,16,1.39
2012-9-11,88,79,73,77,74,68,100,84,67,30.13,30.00,8,2,12,0.01
2012-9-12,88,77,69,76,72,67,98,85,67,30.12,30.05,9,2,16,0.30
2012-9-13,90,79,73,77,73,72,96,83,62,30.09,30.01,9,1,12,0.00
2012-9-14,88,79,74,78,75,72,97,87,68,30.07,29.98,10,2,13,0.02
2012-9-15,88,79,72,77,74,72,100,86,65,30.07,30.00,9,2,13,0.00
2012-9-16,90,78,72,77,74,72,100,89,58,30.06,29.98,10,1,11,0.02
2012-9-17,90,78,70,78,74,71,100,87,58,30.02,29.89,11,2,17,0.10
2012-9-18,87,76,74,80,75,72,99,95,78,29.95,29.87,7,2,23,0.88
2012-9-19,92,80,73,79,75,73,100,86,61,30.05,29.91,10,1,12,0.02
2012-9-20,86,79,73,78,75,73,99,88,66,30.04,29.93,5,1,7,0.00
2012-9-21,87,77,70,77,73,70,100,89,68,30.02,29.90,10,1,17,1.51
2012-9-22,87,77,71,78,74,71,100,90,67,30.04,29.94,8,1,8,0.02
2012-9-23,90,79,70,76,71,66,100,79,46,30.07,30.00,7,2,10,0.01
2012-9-24,84,76,69,72,65,57,95,72,41,30.10,30.01,7,2,13,0.00
2012-9-25,85,74,64,71,67,63,100,81,54,30.10,30.03,4,1,7,0.00
2012-9-26,90,77,70,77,72,69,100,87,57,30.11,30.02,5,0,10,0.00
2012-9-27,90,79,71,77,72,70,100,82,52,30.11,30.00,13,2,15,0.00
2012-9-28,91,79,72,77,73,72,100,85,55,30.06,29.92,8,1,10,0.00
2012-9-29,90,80,72,78,74,72,100,84,57,30.00,29.84,4,1,9,0.00
2012-9-30,92,80,72,79,74,72,100,85,56,29.90,29.77,8,1,11,0.00
2012-10-1,89,79,73,80,76,73,100,89,71,29.82,29.71,8,1,12,0.41
2012-10-2,85,78,73,78,75,72,99,93,78,30.02,29.80,7,2,13,0.47
2012-10-3,90,77,73,80,75,72,100,94,67,30.16,30.00,12,2,18,0.42
2012-10-4,91,77,71,80,74,70,100,92,62,30.17,30.05,5,1,11,0.48
2012-10-5,90,78,71,79,74,70,100,91,65,30.12,29.93,7,1,14,0.28
2012-10-6,89,77,72,79,74,72,100,91,67,29.98,29.85,5,1,10,0.12
2012-10-7,88,75,70,78,72,70,100,92,64,29.98,29.90,6,1,14,0.18
2012-10-8,88,76,70,78,73,70,100,92,68,30.02,29.91,4,1,10,0.01
2012-10-9,86,76,70,76,73,70,100,90,68,30.05,29.96,6,2,8,0.01
2012-10-10,85,76,66,73,69,65,98,81,58,30.10,30.01,6,2,11,0.00
2012-10-11,85,73,62,70,67,62,100,83,57,30.15,30.07,9,2,10,0.00
2012-10-12,85,75,66,71,64,61,94,72,47,30.17,30.08,10,2,15,0.00
2012-10-13,85,75,65,70,66,62,97,76,53,30.16,30.07,11,3,15,0.00
2012-10-14,89,78,66,73,70,65,98,79,55,30.10,29.98,8,1,12,0.00
2012-10-15,88,77,71,76,72,71,100,88,58,29.97,29.81,6,1,9,0.07
2012-10-16,86,75,66,73,69,66,100,84,60,29.88,29.78,6,2,9,0.01
2012-10-17,83,73,65,75,70,64,99,90,75,29.88,29.80,5,0,8,0.00
2012-10-18,91,76,66,74,70,66,100,83,54,29.89,29.78,6,1,10,0.01
2012-10-19,88,77,66,75,70,65,100,81,55,29.88,29.80,6,1,8,0.00
2012-10-20,83,74,60,73,62,52,99,68,45,29.97,29.84,8,2,12,0.00
2012-10-21,83,69,54,61,56,52,95,67,36,30.06,29.95,9,2,11,0.00
2012-10-22,86,73,62,67,64,60,95,74,49,30.07,29.97,9,2,14,0.00
2012-10-23,83,72,62,69,65,61,98,80,60,30.06,29.95,11,2,13,0.00
2012-10-24,88,76,65,73,68,63,96,79,51,30.02,29.90,12,2,14,0.00
2012-10-25,83,75,70,74,71,68,95,87,68,29.92,29.79,9,3,17,0.00
2012-10-26,84,76,72,71,68,63,95,77,49,29.80,29.61,24,7,28,0.00
2012-10-27,75,70,66,65,63,60,87,77,67,29.70,29.56,16,6,25,0.00
2012-10-28,74,68,61,65,61,53,94,80,65,29.80,29.68,16,5,22,0.00
2012-10-29,68,58,50,53,45,38,79,64,35,29.88,29.76,11,5,20,0.00
2012-10-30,66,56,43,49,41,33,82,59,39,29.95,29.84,16,4,23,0.00
2012-10-31,72,60,49,54,49,42,93,69,47,30.06,29.95,12,3,16,0.00
2012-11-1,77,66,56,65,60,53,98,82,62,30.04,29.94,6,1,12,0.00
2012-11-2,78,64,50,62,53,48,99,73,40,30.10,30.00,7,1,9,0.01
2012-11-3,83,68,54,68,60,52,99,79,45,30.13,30.04,6,1,9,0.00
2012-11-4,84,68,56,66,60,56,100,80,42,30.12,29.98,3,1,7,0.00
2012-11-5,78,69,59,69,63,57,99,82,55,30.01,29.91,6,1,9,0.00
2012-11-6,77,65,57,66,60,56,99,86,65,29.94,29.81,5,1,10,0.03
2012-11-7,67,57,50,56,50,46,95,78,53,30.00,29.85,11,3,19,0.00
2012-11-8,66,56,46,48,44,41,92,66,41,30.18,29.99,10,3,17,0.00
2012-11-9,74,56,41,51,46,40,99,73,39,30.26,30.16,10,1,11,0.00
2012-11-10,77,61,48,57,53,46,98,77,48,30.31,30.22,7,1,12,0.00
2012-11-11,79,65,54,65,59,53,99,83,58,30.29,30.20,10,1,13,0.01
2012-11-12,83,70,58,69,64,58,100,83,54,30.24,30.14,7,1,11,0.00
2012-11-13,80,69,60,70,63,60,100,85,59,30.18,30.08,5,1,8,0.00
2012-11-14,78,67,60,68,65,60,100,91,69,30.17,30.08,7,2,10,0.00
2012-11-15,67,64,60,65,63,59,98,95,89,30.14,30.06,8,3,11,0.00
2012-11-16,66,61,58,59,58,56,97,89,76,30.16,30.08,8,3,11,0.00
2012-11-17,80,67,58,64,60,57,98,81,49,30.16,30.06,10,4,15,0.00
2012-11-18,72,64,52,62,59,51,96,86,68,30.18,30.10,10,4,16,0.00
2012-11-19,60,56,49,56,54,48,99,92,86,30.17,30.08,7,3,12,0.00
2012-11-20,73,62,53,60,56,53,98,84,60,30.08,29.97,9,3,13,0.00
2012-11-21,72,60,51,57,51,47,99,77,43,30.09,29.99,14,2,16,0.01
2012-11-22,71,57,42,49,43,37,93,65,31,30.19,30.07,14,3,20,0.00
2012-11-23,71,56,40,49,41,35,93,62,32,30.22,30.09,7,2,14,0.00
2012-11-24,74,60,48,61,51,43,98,77,37,30.11,29.99,12,2,16,0.00
2012-11-25,70,54,41,45,40,35,94,65,28,30.17,30.08,7,1,9,0.00
2012-11-26,78,59,41,61,51,38,97,77,48,30.23,30.12,6,1,10,0.00
2012-11-27,80,66,56,66,60,55,100,85,56,30.20,30.08,8,1,11,0.00
2012-11-28,73,62,57,61,58,54,100,89,65,30.27,30.12,9,3,13,0.00
2012-11-29,77,62,51,61,55,51,98,81,55,30.27,30.19,8,3,13,0.00
2012-11-30,79,64,52,61,56,52,99,78,47,30.25,30.16,10,1,14,0.00
2012-12-1,78,63,52,63,58,51,100,84,55,30.26,30.18,11,1,13,0.00
2012-12-2,81,68,56,66,61,56,100,82,50,30.29,30.18,8,2,14,0.00
2012-12-3,80,68,58,67,62,56,99,82,48,30.28,30.18,5,1,9,0.00
2012-12-4,78,64,54,63,57,54,100,81,48,30.30,30.18,7,1,11,0.00
2012-12-5,80,67,56,66,60,55,98,80,51,30.20,30.04,6,1,9,0.00
2012-12-6,80,68,59,66,62,59,100,83,58,30.05,29.93,7,1,10,0.00
2012-12-7,77,66,60,67,63,59,100,92,69,30.03,29.92,6,1,10,0.00
2012-12-8,81,70,61,70,67,61,100,91,63,30.06,29.97,5,1,10,0.55
2012-12-9,80,70,63,73,68,63,100,92,69,30.10,30.00,6,0,7,0.00
2012-12-10,83,71,61,75,69,61,100,92,73,30.03,29.84,7,2,15,0.18
2012-12-11,83,72,67,75,71,67,100,96,76,30.03,29.89,9,1,9,0.07
2012-12-12,82,72,67,76,71,67,100,97,75,30.08,29.98,4,1,10,0.73
2012-12-13,68,62,56,68,61,54,100,94,86,30.19,30.04,12,4,14,0.00
2012-12-14,67,60,55,61,57,54,100,92,79,30.23,30.10,8,4,14,0.00
2012-12-15,77,63,55,68,60,54,100,92,66,30.16,30.05,6,1,8,0.00
2012-12-16,80,66,55,68,62,55,100,88,58,30.06,29.95,5,1,10,0.01
2012-12-17,83,69,58,69,64,58,100,87,56,29.98,29.86,6,1,10,0.00
2012-12-18,80,69,52,74,64,50,100,86,55,30.03,29.89,8,2,18,0.00
2012-12-19,77,59,47,57,50,43,100,77,30,30.12,30.02,4,0,6,0.00
2012-12-20,82,68,52,69,62,51,100,83,59,30.09,29.92,11,2,16,0.11
2012-12-21,69,54,42,69,43,33,99,67,38,30.21,29.95,18,6,23,0.02
2012-12-22,62,48,36,37,27,20,87,47,20,30.30,30.20,12,3,16,0.00
2012-12-23,69,50,33,45,38,32,98,68,37,30.28,30.15,4,0,7,0.00
2012-12-24,69,58,47,59,52,42,97,80,62,30.15,29.98,5,1,12,0.00
2012-12-25,75,64,52,63,58,52,100,84,59,30.03,29.89,8,1,13,0.00
2012-12-26,78,65,52,71,61,49,99,86,68,30.00,29.79,17,4,20,0.37
2012-12-27,63,50,38,49,42,35,95,77,47,30.11,30.00,7,2,10,0.00
2012-12-28,72,57,38,65,51,37,100,85,50,30.11,29.94,8,1,10,0.24
2012-12-29,76,67,52,72,64,49,100,90,64,30.14,29.87,10,4,18,0.10
2012-12-30,55,47,39,48,40,35,90,76,55,30.36,30.15,14,4,19,0.00
2012-12-31,74,56,43,59,51,42,97,83,56,30.34,30.19,8,1,13,0.00
2013-1-1,77,63,50,65,57,50,100,83,58,30.21,30.04,6,1,12,0.00